SCP
0 0 0 0 0 0 0 0 0 0 0 0 0 0 0 0 0 0 0 0 0 0 0 1 1 1 1 1 1 1 1 0 0 0 0 0 0 0 0 0 0 0 0 0 0 0 0 0 0
0 0 0 0 0 0 0 0 0 0 0 0 0 0 0 0 0 0 0 0 0 0 0 1 1 1 1 1 1 1 1 0 0 0 0 0 0 0 0 0 0 0 0 0 0 0 0 0 0
0 0 0 0 0 0 0 0 0 0 0 0 0 0 0 0 0 0 0 0 0 0 0 1 1 1 1 1 1 1 1 0 0 0 0 0 0 0 0 0 0 0 0 0 0 0 0 0 0
0 0 0 0 0 0 0 0 0 0 0 0 0 0 0 0 0 0 0 0 0 0 0 1 1 1 1 1 1 1 1 1 0 0 0 0 0 0 0 0 0 0 0 0 0 0 0 0 0
0 0 0 0 0 0 0 0 0 0 0 0 0 0 0 0 0 0 0 0 0 0 0 1 1 1 1 1 1 1 1 1 0 0 0 0 0 0 0 0 0 0 0 0 0 0 0 0 0
0 0 0 0 0 0 0 0 0 0 0 0 0 0 0 0 0 0 0 0 0 0 0 1 1 1 1 1 1 1 1 1 0 0 0 0 0 0 0 0 0 0 0 0 0 0 0 0 0
0 0 0 0 0 0 0 0 0 0 0 0 0 0 0 0 0 0 0 0 0 0 0 1 1 1 1 1 1 1 1 1 0 0 0 0 0 0 0 0 0 0 0 0 0 0 0 0 0
0 0 0 0 0 0 0 0 0 0 0 0 0 0 0 0 0 0 0 0 0 0 0 0 1 1 1 1 1 1 1 0 0 0 0 0 0 0 0 0 0 0 0 0 0 0 0 0 0
0 0 0 0 0 0 0 0 0 0 0 0 0 0 0 0 0 0 0 0 0 0 0 1 1 1 1 1 1 1 0 0 0 0 0 0 0 0 0 0 0 0 0 0 0 0 0 0 0
0 0 0 0 0 0 0 0 0 0 0 0 0 0 0 0 0 0 0 0 0 0 0 1 1 1 1 1 1 1 0 0 0 0 0 0 0 0 0 0 0 0 0 0 0 0 0 0 0
0 0 0 0 0 0 0 0 0 0 0 0 0 0 0 0 0 0 0 0 0 0 0 0 1 1 1 1 1 1 1 0 0 0 0 0 0 0 0 0 0 0 0 0 0 0 0 0 0
0 0 0 0 0 0 0 0 0 0 0 0 0 0 0 0 0 0 0 0 0 0 0 0 0 0 1 1 1 1 1 0 0 0 0 0 0 0 0 0 0 0 0 0 0 0 0 0 0
0 0 0 0 0 0 0 0 0 0 0 0 0 0 0 0 0 0 0 0 0 0 0 0 0 0 0 1 1 1 0 0 0 0 0 0 0 0 0 0 0 0 0 0 0 0 0 0 0
0 0 0 0 0 0 0 0 0 0 0 0 0 0 0 0 0 0 0 0 0 0 0 0 0 0 0 0 0 0 0 0 0 0 0 0 0 0 0 0 0 0 0 0 0 0 0 0 0
0 0 0 0 0 0 0 0 0 0 0 0 0 0 0 0 0 0 0 0 0 0 0 0 0 0 0 0 0 0 0 0 0 0 0 0 0 0 0 0 0 0 0 0 0 0 0 0 0
0 0 0 0 0 0 0 0 0 0 0 0 0 0 0 0 0 0 0 0 0 0 0 0 0 0 0 0 0 0 0 0 0 0 0 0 0 0 0 0 0 0 0 0 0 0 0 0 0
0 0 0 0 0 0 0 0 0 0 0 0 0 0 0 0 0 0 0 0 0 0 0 0 0 0 0 0 0 0 0 0 0 0 0 0 0 0 0 0 0 0 0 0 0 0 0 0 0
0 0 0 0 0 0 0 0 0 0 0 0 0 0 0 0 0 0 0 0 0 0 0 0 0 0 0 0 0 0 0 0 0 0 0 0 0 0 0 0 0 0 0 0 0 0 0 0 0
0 0 0 0 0 0 0 0 0 0 0 0 0 0 0 0 0 0 0 0 0 0 0 0 0 0 0 0 0 0 0 0 0 0 0 0 0 0 0 0 0 0 0 0 0 0 0 0 0
0 0 0 0 0 0 0 0 0 0 0 0 0 0 0 0 0 0 0 0 0 0 0 0 0 0 0 0 0 0 0 0 0 0 0 0 0 0 0 0 0 0 0 0 0 0 0 0 0
0 0 0 0 0 0 0 0 0 0 0 0 0 0 0 0 0 0 0 0 0 0 0 0 0 0 0 0 0 0 0 0 0 0 0 0 0 0 0 0 0 0 0 0 0 0 0 0 0
0 0 0 0 0 0 0 0 0 0 0 0 0 0 0 0 0 0 0 0 0 0 0 0 0 0 0 0 0 0 0 0 0 0 0 0 0 0 0 0 0 0 0 0 0 0 0 0 0
0 0 0 0 0 0 0 0 0 0 0 0 0 0 0 0 0 0 0 0 0 0 0 0 0 0 0 0 0 0 0 0 0 0 0 0 0 0 0 0 0 0 0 0 0 0 0 0 0
0 0 0 0 0 0 0 0 0 0 0 0 0 0 0 0 0 0 0 0 0 0 0 0 0 0 0 0 0 0 0 0 0 0 0 0 0 0 0 0 0 0 0 0 0 0 0 0 0
0 0 0 0 0 0 0 0 0 0 0 0 0 0 0 0 0 0 0 0 0 0 0 0 0 0 0 0 0 0 0 0 0 0 0 0 0 0 0 0 0 0 0 0 0 0 0 0 0
0 0 0 0 0 0 0 0 0 0 0 0 0 0 0 0 0 0 0 0 0 0 0 0 0 0 0 0 0 0 0 0 0 0 0 0 0 0 0 0 0 0 0 0 0 0 0 0 0
0 0 0 0 0 0 0 0 0 0 0 0 0 0 0 0 0 0 0 0 0 0 0 0 0 0 0 0 0 0 0 0 0 0 0 0 0 0 0 0 0 0 0 0 0 0 0 0 0
0 0 0 0 0 0 0 0 0 0 0 0 0 0 0 0 0 0 0 0 0 0 0 0 0 0 0 0 0 0 0 0 0 0 0 0 0 0 0 0 0 0 0 0 0 0 0 0 0
0 0 0 0 0 0 0 0 0 0 0 0 0 0 0 0 0 0 0 0 0 0 0 0 0 0 0 0 0 0 0 0 0 0 0 0 0 0 0 0 0 0 0 0 0 0 0 0 0
0 0 0 0 0 0 0 0 0 0 0 0 0 0 0 0 0 0 0 0 0 0 0 0 0 0 0 0 0 0 0 0 0 0 0 0 0 0 0 0 0 0 0 0 0 0 0 0 0
Wind_Speed
2 2 3 4 5 6 10 7 5 4 4 1 2 3 3 2 1 2 4 2 3 6 8 10 9 10 10 10 10 10 10 9 9 9 9 9 8 8 8 8 8 8 8 9 10 10 10 10 10
2 2 4 4 7 9 8 7 8 5 2 1 3 4 4 2 1 2 2 2 3 6 8 9 9 10 10 10 10 10 10 9 9 9 9 8 8 8 8 8 8 8 8 8 9 9 9 9 10
2 3 4 5 8 10 7 5 5 3 2 2 3 2 2 1 1 1 2 3 5 6 7 9 9 9 10 10 10 10 10 9 9 9 8 8 8 8 8 8 8 8 8 8 8 9 9 9 9
3 4 4 7 12 9 6 3 2 3 4 3 3 3 2 2 2 2 1 4 5 7 7 9 8 9 9 10 10 9 10 9 9 9 8 8 8 7 7 7 7 8 7 7 8 8 8 8 8
2 4 7 9 12 8 5 4 4 4 4 3 4 3 3 3 2 2 2 4 5 6 6 8 8 9 9 9 9 9 9 9 9 9 8 8 8 7 7 6 7 7 7 7 8 8 8 8 8
4 5 8 12 12 8 6 5 6 6 5 3 3 4 2 3 2 2 2 3 4 5 6 7 8 8 8 8 8 8 8 8 9 9 8 8 7 7 7 7 6 6 7 7 7 8 8 8 8
4 5 9 10 9 8 6 5 7 7 7 5 3 4 3 2 2 1 2 3 3 4 5 6 7 8 8 8 8 8 8 7 8 8 8 7 7 7 7 7 6 6 6 6 6 7 7 8 7
3 4 7 8 9 8 4 5 5 7 6 2 4 5 3 1 1 0 2 3 3 3 4 4 6 7 7 7 8 7 7 7 7 7 7 7 7 7 7 6 6 6 6 6 5 6 7 7 7
3 6 9 9 8 5 4 5 4 4 4 4 4 3 2 1 1 2 2 3 3 3 3 3 4 5 5 6 7 7 7 7 7 6 7 6 5 5 5 5 6 6 6 5 5 5 6 6 6
5 8 10 5 5 4 4 5 4 4 6 6 5 3 1 2 3 4 4 4 4 3 3 3 3 4 4 4 5 4 5 6 5 5 6 5 4 3 4 6 5 5 5 5 5 5 5 3 3
5 7 6 5 4 4 5 5 4 7 7 7 7 5 4 4 5 5 5 5 5 4 3 3 3 3 4 3 3 3 3 4 5 5 5 4 4 3 3 3 4 4 4 3 3 3 3 2 2
5 5 5 4 3 4 5 5 5 8 7 5 6 5 5 6 6 6 6 4 4 4 4 4 3 3 3 4 3 3 3 3 4 5 6 4 3 3 3 2 2 2 2 2 2 1 2 2 2
7 5 5 5 5 5 5 7 7 9 7 6 5 4 6 6 6 6 5 4 4 5 5 4 4 4 3 3 3 3 3 4 5 5 5 5 4 4 3 2 2 2 2 2 2 2 2 2 2
4 5 5 5 5 5 7 8 7 8 5 5 5 6 6 6 6 6 6 6 5 5 5 4 5 4 4 3 4 3 3 4 4 4 5 6 4 4 4 3 3 2 2 2 2 2 2 1 1
3 4 4 4 5 4 5 8 10 7 5 5 6 6 6 6 6 6 6 6 5 5 4 4 5 5 4 4 4 3 3 4 4 4 5 5 5 5 4 4 3 2 2 2 2 2 2 1 1
4 5 5 2 3 3 5 9 5 2 4 5 5 5 6 6 6 6 6 6 5 5 4 4 4 5 5 4 4 3 3 4 4 4 4 5 5 5 4 4 3 3 3 3 2 2 2 2 1
4 6 7 4 3 3 6 9 4 2 4 6 5 5 5 5 6 5 5 5 5 5 4 4 4 5 5 4 3 3 3 3 3 3 4 5 5 5 4 3 3 4 3 3 2 2 2 2 1
5 6 6 6 2 4 8 10 6 4 5 6 6 6 5 5 5 5 4 4 4 4 4 4 4 4 4 4 3 3 3 3 3 3 4 5 5 5 4 3 4 4 3 3 3 3 2 2 1
5 6 8 6 3 5 9 11 10 6 6 7 7 6 5 6 4 3 3 3 4 3 4 4 4 3 3 3 4 4 4 3 3 3 4 5 5 6 5 4 4 4 4 4 4 4 3 2 2
6 7 8 6 3 6 8 11 10 7 8 8 7 7 6 5 4 3 3 3 3 3 3 4 4 4 4 4 3 3 3 3 3 3 4 4 5 5 4 5 4 4 4 5 5 5 3 2 3
8 8 8 6 5 4 7 9 7 5 5 6 7 7 6 5 4 4 3 3 3 3 3 3 4 4 4 4 3 3 3 3 3 3 3 4 5 5 5 5 5 5 4 4 5 6 5 4 3
8 6 7 6 6 3 4 7 5 4 5 6 6 5 5 4 4 3 3 3 3 3 3 3 3 3 4 4 5 6 5 4 3 3 3 4 5 5 5 5 5 5 4 4 4 5 5 5 4
5 4 5 6 6 5 5 6 6 2 5 6 4 3 3 3 3 3 3 3 3 2 2 2 2 3 3 4 5 6 5 3 3 3 4 3 3 4 4 4 5 5 4 5 5 5 5 4 4
2 1 2 3 4 7 7 8 7 4 6 4 3 3 4 4 3 3 2 2 1 1 1 1 2 2 3 4 5 5 5 5 5 4 4 3 2 2 3 3 4 5 4 5 4 5 5 4 4
1 2 3 4 5 6 2 6 8 4 4 5 4 4 4 3 3 2 2 2 1 1 1 1 2 2 2 3 4 4 5 5 6 5 4 3 2 2 3 3 3 3 3 4 4 4 4 5 5
5 5 4 5 5 3 3 7 4 3 4 4 4 3 2 2 2 2 2 2 1 1 1 1 2 2 2 3 3 4 4 3 3 4 3 3 2 2 3 3 3 3 3 3 3 3 4 4 4
4 5 4 3 3 5 6 6 6 3 3 3 3 3 2 2 2 2 2 2 2 1 1 2 2 2 3 3 3 3 3 3 3 3 2 2 2 2 2 3 3 3 3 3 3 3 3 4 4
4 3 3 4 5 6 6 7 5 4 4 3 3 3 3 2 2 2 2 2 2 2 1 1 1 1 2 2 2 2 3 3 3 3 3 2 2 2 2 2 3 3 3 3 3 3 3 3 3
4 4 4 4 4 5 6 4 1 3 3 3 3 2 2 3 3 3 2 2 2 1 1 0 0 1 1 1 2 2 2 3 3 3 2 2 2 2 2 2 2 3 3 3 3 3 4 4 4
6 6 7 5 5 5 6 6 2 1 2 3 3 3 3 3 3 3 3 2 1 1 1 1 1 1 1 1 1 2 2 3 3 2 2 2 2 2 2 2 3 3 3 3 3 4 4 4 4
Wind_Direction
296 262 230 220 216 223 233 221 217 186 197 222 220 220 217 225 268 43 57 114 146 158 160 160 161 156 151 145 140 136 134 132 129 125 122 123 124 118 117 115 111 106 102 99 97 94 93 90 89
287 235 214 218 229 225 225 218 214 208 161 159 202 216 211 198 16 43 78 124 162 159 161 161 155 156 152 149 143 140 139 136 130 126 123 124 129 125 120 121 115 110 104 100 97 96 95 93 93
234 241 220 211 227 234 227 204 214 208 189 213 197 221 243 158 105 55 43 159 164 157 162 152 153 155 153 152 149 145 142 138 133 130 126 127 128 129 124 122 118 114 107 103 101 100 98 96 95
218 198 215 229 228 233 248 219 189 186 196 222 227 189 151 52 13 22 100 165 162 157 162 151 155 154 151 151 152 150 145 141 137 133 130 129 126 123 125 119 119 115 111 108 107 105 101 99 100
224 215 213 227 236 234 243 256 224 213 199 204 224 220 166 107 28 42 133 157 160 158 162 157 156 153 151 150 152 150 148 146 143 139 136 133 126 122 118 117 120 118 115 111 111 108 104 102 102
197 217 224 231 231 232 233 230 224 235 231 218 236 236 170 114 61 69 136 156 157 158 165 160 159 158 153 153 154 151 149 147 146 143 140 134 129 124 119 114 118 120 118 113 113 112 109 106 104
219 220 237 242 240 236 228 225 232 235 231 224 238 237 179 140 53 71 152 159 155 160 166 166 171 168 159 154 150 150 149 145 143 143 137 130 128 124 123 117 113 114 114 115 115 116 114 111 108
243 226 233 234 237 240 223 218 246 249 247 238 231 237 210 124 32 119 153 159 159 166 168 170 177 177 175 166 148 146 144 138 133 135 129 121 123 124 123 124 116 114 113 113 115 117 120 113 109
223 229 233 231 234 231 204 221 231 259 244 228 232 269 330 104 162 164 166 168 170 181 181 177 182 181 177 172 154 151 146 134 134 134 126 131 143 140 137 124 114 114 112 116 115 111 112 113 113
210 228 237 244 249 247 221 237 232 227 231 226 225 235 214 186 193 197 199 196 192 198 199 188 186 186 182 175 167 167 164 155 159 154 152 154 146 135 131 113 109 109 107 111 108 111 132 147 140
215 234 237 247 260 265 246 250 243 239 240 242 248 231 210 215 218 221 220 219 212 206 205 204 193 191 189 182 176 169 170 165 166 162 157 150 142 141 146 143 133 134 133 137 128 158 167 164 146
225 241 246 257 263 260 258 257 251 245 258 294 278 246 223 223 227 229 228 233 229 218 211 210 203 194 193 189 181 176 175 174 170 167 164 159 152 158 160 162 163 163 157 157 173 170 158 161 160
234 246 254 260 255 259 265 255 257 255 272 283 260 232 232 235 239 236 237 235 237 228 220 213 209 202 195 188 187 181 184 181 177 171 170 169 166 167 167 168 167 171 166 169 177 178 166 168 165
241 245 255 263 249 250 257 263 254 258 265 254 234 229 234 238 241 240 241 238 236 237 230 218 212 206 197 193 187 188 190 184 182 176 176 176 176 172 171 172 171 172 174 175 180 178 174 174 179
242 247 258 257 249 254 257 255 246 261 257 244 233 232 235 240 242 242 242 239 236 234 237 231 217 206 199 197 197 191 192 189 183 179 180 180 179 176 175 176 177 170 170 171 175 171 175 174 185
233 237 243 226 228 223 234 257 253 269 243 239 239 238 236 239 244 250 250 249 248 238 232 239 228 211 199 199 200 192 190 188 188 179 179 181 181 180 176 179 179 171 172 174 179 185 179 180 199
226 239 244 241 221 233 234 263 273 285 249 247 247 245 241 241 249 253 254 250 248 239 227 227 226 217 206 196 193 185 184 187 190 181 176 179 180 182 177 182 177 173 173 177 181 188 189 182 186
234 242 247 248 232 247 247 261 277 287 264 258 255 252 249 249 256 259 255 254 247 235 231 222 218 216 206 193 184 179 179 180 184 188 181 178 179 182 175 176 177 174 172 178 184 178 179 185 175
263 255 258 260 272 261 258 269 277 275 262 257 257 257 256 256 261 272 275 265 244 225 224 220 207 204 198 192 190 189 188 182 179 190 184 180 179 180 178 174 177 181 183 185 182 177 175 179 175
252 256 264 271 278 265 273 274 273 259 251 252 258 258 256 258 264 267 269 270 253 235 223 221 212 202 200 199 197 198 183 179 175 176 181 181 181 182 181 180 181 183 184 184 185 179 185 192 202
246 252 259 271 292 261 282 274 253 249 251 257 258 258 259 259 268 277 271 272 273 249 235 226 217 209 203 194 181 172 169 171 175 178 183 184 186 181 182 183 184 183 187 189 194 194 193 196 203
254 259 257 260 264 259 267 280 265 242 251 258 260 255 260 263 268 280 281 278 277 268 252 231 218 209 199 189 187 182 185 185 185 181 181 180 186 182 184 183 183 185 187 191 197 206 205 202 200
263 275 250 248 249 263 240 256 272 256 260 265 263 265 276 275 272 273 275 273 282 281 263 245 217 206 194 190 190 193 191 183 171 170 169 171 176 182 185 183 181 187 188 189 192 199 209 213 211
257 226 220 235 236 248 239 235 270 242 257 270 274 280 291 289 279 270 271 270 281 284 263 242 216 202 192 185 188 192 185 180 173 174 170 174 173 177 182 185 191 190 187 189 192 198 203 210 213
237 221 218 213 220 244 210 232 258 275 273 274 285 293 295 294 286 280 278 268 276 277 275 227 214 197 195 187 183 188 188 184 183 179 175 178 181 186 192 186 194 195 191 188 188 195 201 205 207
219 229 240 250 251 245 208 239 255 318 314 307 301 303 308 299 291 287 284 276 266 258 250 235 209 192 195 194 187 188 190 186 186 188 180 186 187 185 191 187 189 192 190 186 188 195 201 204 204
206 221 256 268 277 261 239 254 269 266 295 314 319 323 324 315 311 312 310 300 297 277 262 236 221 199 194 197 189 183 181 179 183 184 181 177 172 171 182 186 184 187 186 184 185 197 200 199 200
253 201 196 222 247 253 254 252 252 245 270 302 322 328 333 335 333 338 329 318 316 305 275 248 228 211 189 182 184 176 170 176 176 170 171 169 159 162 167 179 181 184 184 183 182 190 201 203 200
191 201 218 226 253 259 263 258 259 250 273 279 298 316 326 333 330 332 332 320 319 329 332 279 187 138 133 149 160 162 162 165 161 159 163 155 145 158 163 174 181 185 188 183 182 193 199 204 202
232 221 210 226 229 239 262 267 68 275 312 313 319 326 330 331 323 326 329 333 341 359 4 35 72 98 107 132 142 146 155 156 152 149 153 150 143 155 168 173 182 188 189 185 188 197 208 210 207